Theta_e
311 313 316 318 320 322 323 325 326 326 326 326 326 326 327 328 328 328 329 329 329 329 329 329 329 330 330 331 331 331 330 330 331 330 329 329 328 329 329 329 329 329 329 329 329 329 329 330 330 329 329 329 330 328 327 327 326 326 326 326 326 326 326 326 324 324 323 323 323 321 320 321 321 321 321 318 312 306 303 304 304 300 299 301 301
309 310 312 313 316 319 321 324 326 326 326 326 325 326 326 327 328 328 329 329 329 329 329 329 330 330 330 331 331 330 330 330 331 330 329 329 329 329 329 329 329 329 329 329 329 329 329 329 330 329 329 329 329 328 327 327 325 325 325 325 325 325 324 324 324 323 322 321 321 321 320 321 321 320 320 319 315 309 304 304 304 301 299 300 301
308 309 310 311 313 316 318 321 324 326 326 326 325 325 326 327 327 328 329 329 329 329 329 330 330 330 330 330 331 330 330 330 330 330 329 329 329 329 329 329 329 329 329 329 329 329 329 329 329 329 328 329 329 328 328 327 325 325 324 323 323 323 323 323 323 322 322 320 319 320 320 320 320 319 319 318 316 311 307 305 304 303 300 299 300
307 308 309 310 311 313 315 317 321 323 325 326 326 325 326 327 327 327 328 329 329 329 329 330 330 330 330 330 330 330 330 330 330 331 330 329 329 329 328 329 329 329 329 329 329 329 328 329 329 329 328 328 329 328 328 327 326 324 324 323 322 322 321 321 321 321 321 319 318 318 318 319 319 318 318 317 316 314 310 306 305 304 303 300 300
306 306 307 308 309 311 313 315 317 320 323 324 325 325 325 325 325 325 327 328 329 329 329 330 330 330 330 330 330 330 330 330 330 331 330 330 329 328 328 329 329 329 329 329 329 329 329 329 329 329 329 329 329 329 328 328 326 325 324 323 322 321 320 320 320 320 320 319 318 315 315 317 317 317 317 317 315 314 312 308 305 305 304 302 301
306 306 306 307 308 309 311 313 315 318 321 323 324 325 324 324 325 325 326 327 328 328 328 329 329 330 330 331 331 331 331 330 330 330 330 330 329 328 329 329 329 329 329 328 328 328 329 329 329 329 329 329 329 329 329 328 327 326 326 324 323 321 320 319 319 318 318 319 318 315 313 314 315 316 316 316 315 314 313 310 307 305 305 304 303
305 306 306 306 307 308 309 311 312 315 319 321 323 324 324 324 324 325 326 328 327 327 327 328 329 329 330 331 331 331 330 330 330 329 329 330 330 329 328 328 328 328 328 328 328 328 328 328 329 329 328 329 329 329 329 328 327 327 327 326 324 322 321 319 317 317 317 318 317 315 314 313 313 314 314 314 313 313 313 312 309 307 306 306 305
305 305 305 306 306 306 307 309 310 312 316 320 322 323 324 324 325 325 325 327 327 326 326 327 327 328 330 331 331 331 330 329 329 329 328 329 329 329 328 328 327 327 327 327 327 327 328 327 328 328 328 329 329 329 329 328 328 328 327 327 326 324 322 320 317 316 316 316 316 316 315 314 313 312 311 311 312 312 312 312 311 311 309 308 307
304 305 305 305 305 306 306 308 309 310 314 318 320 322 323 324 325 325 325 326 326 326 325 325 326 327 329 330 330 330 330 329 329 329 328 328 328 328 327 327 327 326 326 326 326 327 327 327 327 327 328 328 328 329 329 327 328 328 328 327 326 326 325 321 318 317 317 316 316 316 315 314 314 312 311 310 311 312 312 310 310 312 312 310 309
304 304 305 305 305 305 306 307 307 308 311 315 318 320 322 323 324 324 325 325 325 325 324 324 325 326 328 329 330 330 329 329 328 328 328 328 327 328 327 327 327 326 326 326 326 326 327 327 327 327 327 327 328 329 329 327 327 328 328 327 326 327 326 322 318 318 318 317 316 316 316 316 316 314 313 312 312 312 312 310 310 312 311 310 311
304 304 304 304 304 305 305 306 306 307 308 311 315 317 320 323 323 324 324 325 325 324 324 323 324 325 327 328 329 328 328 328 327 328 328 328 327 328 328 327 327 327 327 326 326 326 327 327 327 327 327 327 327 328 328 328 328 328 328 327 327 327 326 323 321 321 321 320 319 318 317 319 318 316 314 313 312 311 311 311 310 312 312 311 313
303 304 304 304 304 304 304 304 305 305 306 308 310 313 316 319 321 322 323 323 323 324 323 322 322 324 325 326 327 327 327 327 327 327 327 327 327 327 327 327 327 327 327 327 326 326 326 327 326 326 326 326 327 327 327 328 328 328 328 328 327 326 325 324 323 323 322 322 322 320 320 321 321 317 315 313 312 310 310 310 310 311 312 312 313
302 303 304 303 303 303 303 304 304 304 304 305 307 310 312 314 315 317 318 320 320 321 321 321 321 322 323 324 325 325 325 326 326 327 326 326 326 327 326 327 327 327 327 327 327 326 326 326 325 325 326 326 327 327 327 327 327 328 328 327 326 326 325 323 322 322 321 321 322 321 320 320 319 317 315 312 311 310 310 310 310 311 312 313 314
302 303 303 303 303 303 303 303 303 303 303 303 304 305 307 309 310 311 313 314 314 314 315 316 317 318 320 321 323 323 324 325 326 326 326 326 326 326 325 325 325 326 327 327 326 326 326 325 325 325 325 326 326 326 326 326 326 326 324 323 323 322 322 320 319 319 319 320 321 320 320 318 316 315 313 310 310 311 312 312 312 312 313 313 313
301 302 303 303 302 303 303 302 303 303 302 302 302 302 303 305 306 307 307 308 308 308 308 310 311 313 315 316 319 320 321 322 324 325 325 325 326 326 324 323 323 324 325 326 326 326 326 326 326 326 326 326 326 326 325 324 321 319 318 316 316 316 316 317 318 317 316 316 317 317 316 315 312 311 310 308 309 312 313 313 313 313 313 313 313
301 302 302 302 302 302 302 302 302 302 302 302 302 302 302 302 303 304 305 305 305 305 306 306 307 308 310 311 313 316 318 320 321 323 324 325 325 324 323 322 322 323 324 325 326 326 326 325 326 326 327 327 326 324 323 320 317 314 313 311 310 311 311 311 314 314 312 312 313 312 312 312 311 312 312 311 312 313 313 313 312 313 315 315 314
300 301 302 302 302 302 302 302 302 302 302 302 302 302 301 301 302 303 304 304 304 304 304 303 304 305 307 308 310 311 314 317 319 320 321 323 323 322 321 321 321 322 323 324 325 325 325 325 325 325 325 326 323 320 318 317 314 311 310 308 307 307 306 306 308 309 308 308 308 307 308 309 310 311 311 311 312 312 313 313 312 312 315 316 315
300 301 301 301 302 302 302 302 302 302 302 302 302 301 301 301 301 301 302 302 302 303 303 303 303 303 303 304 306 308 310 313 316 318 318 320 321 320 320 320 320 320 320 321 322 322 323 324 323 322 323 322 320 316 315 314 312 310 309 308 307 305 303 304 306 306 306 306 307 307 307 306 307 308 307 307 308 309 311 312 310 310 311 312 312
299 300 301 301 301 302 302 302 302 302 302 302 302 302 301 301 301 301 301 301 301 301 302 302 302 302 302 302 302 304 305 307 311 315 316 317 318 318 319 319 318 317 316 316 317 317 318 319 319 319 319 318 315 313 312 312 312 311 312 311 308 304 303 305 305 305 305 306 308 309 307 306 307 308 307 306 306 307 308 308 306 307 307 308 309
297 298 300 301 301 301 301 302 302 302 302 302 302 302 301 301 301 300 300 300 300 300 300 300 300 300 301 301 301 301 301 302 306 310 313 314 315 316 317 318 316 313 311 311 311 311 311 312 313 315 315 313 311 310 310 311 312 312 312 311 309 306 304 305 305 306 305 305 305 306 305 304 305 305 304 303 303 303 304 304 303 304 305 306 306
297 297 298 300 301 301 301 301 301 301 301 301 301 301 301 301 300 300 300 300 300 299 298 298 298 298 299 300 300 301 300 299 301 306 309 310 311 312 313 314 314 311 307 306 306 305 306 307 308 310 311 309 309 310 310 310 311 311 311 311 309 307 305 304 304 304 304 303 302 302 301 301 301 301 301 301 301 301 301 301 300 301 302 303 304
298 297 297 298 300 301 301 301 301 301 301 301 301 301 300 300 300 300 300 299 299 299 298 298 298 298 298 298 299 300 300 299 300 303 305 306 306 307 307 307 309 310 307 304 302 302 302 302 303 306 308 307 307 308 309 309 309 310 309 308 307 305 304 303 303 302 301 301 300 300 300 299 299 299 299 299 299 298 298 298 298 297 298 298 299
299 298 297 297 298 299 300 301 301 300 301 301 301 301 300 300 300 299 300 299 299 298 298 298 297 298 298 298 298 298 299 299 300 301 302 303 303 304 303 303 304 307 305 302 301 300 300 300 300 302 304 305 305 305 306 306 306 306 305 304 303 303 302 302 301 301 300 300 299 299 299 298 298 297 297 296 296 296 296 296 296 296 296 296 296
299 299 298 297 297 297 298 299 300 300 300 300 300 300 300 300 300 299 299 299 299 298 298 298 297 297 298 298 298 298 298 298 299 300 301 301 301 302 302 301 302 303 302 301 301 301 301 301 301 301 302 302 303 303 303 303 303 302 302 301 301 301 301 300 300 300 299 299 298 297 297 296 296 296 295 295 295 295 295 295 295 296 296 296 296
299 299 298 298 298 297 297 298 299 300 300 300 300 300 300 300 300 299 299 298 298 298 298 297 297 297 297 297 297 297 297 298 299 300 300 301 301 301 301 301 302 302 302 301 301 301 301 301 302 302 302 302 302 302 302 301 301 300 300 300 300 300 300 299 299 299 299 297 296 295 295 295 295 294 294 294 295 295 295 295 295 296 296 296 296
298 298 298 298 298 298 297 297 298 299 299 299 299 300 299 299 299 299 299 298 298 298 297 297 296 296 297 297 297 298 298 298 298 299 299 300 301 301 301 301 301 301 301 300 300 301 301 302 302 302 302 302 302 301 300 300 300 300 300 300 299 299 299 299 298 298 297 295 294 294 294 293 293 294 294 294 294 294 295 295 295 295 296 297 297
297 298 298 298 297 297 297 296 297 297 298 298 298 299 299 299 299 299 298 298 298 298 297 297 296 296 296 296 296 297 298 298 298 298 299 299 300 300 300 300 300 300 300 299 299 299 300 300 300 300 300 300 300 300 299 299 299 299 299 299 299 298 297 297 296 295 294 294 293 293 293 293 293 293 294 294 294 294 294 294 295 295 295 297 298
297 297 298 298 297 297 297 296 296 297 297 297 297 297 297 298 298 298 298 298 298 298 298 297 297 296 295 295 295 296 296 297 298 298 298 299 299 300 300 300 299 299 299 299 298 298 298 298 298 298 298 297 297 297 297 298 298 298 298 298 297 296 295 295 294 294 293 293 293 293 293 293 293 293 293 293 294 294 294 294 294 294 295 296 297
297 297 297 297 297 297 297 296 296 296 296 296 296 296 296 297 297 297 297 297 297 297 297 297 297 296 295 295 295 295 295 295 296 297 297 298 298 298 298 298 299 298 298 298 298 298 298 297 297 297 297 297 296 296 296 296 295 295 295 295 294 294 293 293 293 293 292 292 292 292 293 293 292 293 293 293 293 293 294 294 294 294 295 296 296
297 297 297 297 297 296 296 296 296 296 296 296 296 296 296 296 296 296 296 296 296 296 296 296 296 296 296 296 295 295 295 295 295 296 296 297 297 297 296 296 296 296 296 297 296 296 296 296 296 296 296 296 295 295 294 294 294 293 293 293 292 292 292 292 292 292 292 292 292 292 292 292 292 292 292 292 292 292 293 293 293 294 294 295 295
297 297 297 297 297 296 296 296 296 296 296 296 296 296 297 296 296 296 296 296 296 296 296 296 296 296 296 296 296 295 295 295 295 295 296 296 296 296 295 295 295 296 296 296 296 295 295 295 295 295 294 294 294 294 293 293 293 292 292 292 292 292 292 292 292 292 292 292 292 292 292 292 292 291 291 291 291 292 292 292 292 293 294 294 294
297 297 297 297 297 297 296 296 296 296 296 296 296 296 297 297 297 296 296 296 296 296 296 296 296 296 296 296 296 296 296 296 296 296 296 296 296 296 296 296 296 296 296 296 296 296 295 295 294 294 294 293 293 292 292 292 292 292 291 291 291 291 291 291 291 291 291 291 291 292 292 292 291 291 291 291 291 291 291 291 292 292 293 293 293
297 296 296 296 297 297 297 296 296 297 296 296 296 296 297 297 297 297 296 296 295 295 295 295 295 296 296 297 296 296 296 296 297 296 296 296 296 296 296 296 296 296 296 296 296 296 296 295 294 293 293 293 293 292 292 291 291 291 291 291 291 291 291 291 291 291 291 291 291 291 291 291 291 291 291 291 291 291 291 291 292 292 293 293 293
297 296 296 296 297 297 297 296 296 296 297 296 296 297 297 297 296 297 297 296 296 296 295 295 295 295 296 296 296 296 296 296 297 297 297 297 297 297 297 297 297 297 297 296 296 296 295 294 293 293 293 292 292 292 291 291 291 290 290 290 290 290 291 291 291 291 291 291 291 291 291 291 291 291 291 291 291 291 291 291 292 292 292 293 293
298 297 297 296 296 297 297 297 297 296 296 297 296 297 296 296 296 296 296 295 296 296 295 295 295 295 295 295 295 295 295 296 296 296 296 296 296 296 297 297 297 297 297 296 296 295 295 294 293 292 292 292 291 291 291 290 290 290 290 290 290 290 290 290 290 291 291 291 291 290 290 290 290 290 291 291 291 291 291 291 291 291 292 292 292
298 298 298 297 297 296 296 296 296 296 296 296 296 296 296 296 296 296 295 295 295 295 295 295 294 294 294 294 294 294 294 295 295 295 295 295 295 296 296 296 297 296 296 296 295 294 294 293 292 292 292 291 291 290 290 290 290 290 290 290 290 290 290 290 290 290 290 290 290 290 290 290 290 290 290 291 291 291 291 291 291 290 291 291 292
298 298 298 298 297 297 297 296 296 296 296 296 296 296 296 296 296 296 295 295 294 295 295 295 294 295 294 294 294 293 293 294 294 294 295 295 295 295 296 296 296 295 295 295 294 293 292 292 292 291 291 290 290 290 290 290 290 290 290 290 290 290 290 290 290 290 290 290 290 290 290 290 290 290 290 290 290 290 290 290 290 291 291 291 292
298 297 297 297 298 297 297 296 296 296 296 296 296 296 296 296 296 296 295 295 294 294 295 294 294 294 294 294 293 293 293 293 293 293 294 294 295 295 295 295 295 295 294 294 293 292 292 291 291 291 290 290 290 290 290 290 290 290 290 290 290 290 290 289 290 290 290 290 290 290 290 290 290 290 290 290 290 290 290 290 290 291 291 292 292
297 297 297 297 297 298 297 296 296 296 296 296 296 296 295 295 296 296 296 295 295 294 294 294 294 294 293 293 293 292 292 293 293 293 293 294 294 294 294 294 294 294 294 293 293 292 292 291 290 290 290 290 290 290 290 290 290 290 290 290 290 289 289 289 289 289 290 290 290 290 290 290 290 290 290 290 290 290 290 290 290 290 291 292 292
297 297 297 297 297 297 297 297 296 296 296 296 296 296 295 295 295 295 295 295 295 295 294 294 293 293 293 293 292 292 292 292 292 292 292 293 293 293 293 293 294 294 293 293 292 292 291 291 290 290 290 290 290 290 290 290 290 290 290 290 290 290 290 290 289 289 290 290 290 290 290 290 290 290 290 290 289 289 290 290 290 290 290 291 291
297 297 297 297 296 296 296 296 296 296 296 296 296 296 295 295 294 295 295 295 294 295 295 294 293 293 293 292 292 291 291 291 291 291 291 291 292 292 292 293 293 293 293 293 292 292 291 290 290 290 290 290 290 290 290 290 290 290 290 290 290 290 290 290 290 290 290 290 290 290 290 290 290 290 290 290 290 290 290 290 290 290 290 290 291
297 297 297 296 296 295 296 296 296 296 296 296 296 295 295 294 294 294 294 294 294 294 294 294 293 293 293 292 291 291 291 291 291 291 290 290 291 291 291 291 291 291 292 292 292 292 291 291 291 290 290 291 291 290 290 290 290 290 290 290 290 290 290 290 290 290 290 290 290 290 290 290 290 290 290 290 290 290 290 290 290 290 290 290 290
296 296 296 296 296 296 296 296 296 296 296 296 296 295 295 294 294 294 294 294 294 294 294 294 293 293 293 292 291 291 291 291 291 290 290 290 290 290 290 290 290 290 291 291 291 291 291 291 291 291 291 291 290 290 290 290 290 290 290 290 290 290 290 290 290 290 290 290 290 290 290 290 290 289 289 289 290 290 290 290 290 290 290 290 290
296 296 296 296 295 295 295 295 295 296 296 296 296 295 295 295 294 294 294 294 294 294 294 293 293 293 293 292 292 292 291 291 291 291 290 290 290 290 290 290 290 290 291 291 291 291 291 291 291 291 291 290 290 290 290 290 290 290 290 290 290 290 290 290 290 290 290 290 290 290 290 290 290 289 289 289 289 289 289 289 290 290 290 290 290
294 295 296 296 295 294 293 294 294 295 295 295 296 295 295 295 295 294 294 294 294 294 294 293 293 293 292 292 292 292 292 291 291 291 291 290 290 290 289 290 290 290 291 291 291 291 291 291 291 291 291 291 290 291 291 291 291 290 290 290 290 290 289 290 290 290 290 290 290 290 290 290 290 289 289 289 289 289 289 289 289 290 290 290 289
292 293 294 295 294 294 293 293 293 294 294 295 295 295 295 295 295 294 294 294 294 294 294 294 293 293 292 292 292 292 292 292 291 291 291 290 290 290 290 290 290 290 290 291 291 290 290 290 290 291 291 291 291 291 291 291 291 290 289 290 290 290 289 289 290 290 290 290 290 290 290 290 289 289 289 289 289 289 288 288 289 289 290 289 289
291 291 292 293 293 293 293 293 293 293 294 295 295 295 295 295 295 295 294 294 294 294 294 294 294 293 293 292 292 292 292 292 292 291 291 290 290 290 290 290 290 290 290 290 290 290 290 290 290 290 291 291 291 291 291 291 291 290 289 289 290 290 289 289 290 290 290 290 290 290 290 290 289 289 289 288 288 288 288 288 288 289 289 289 289
292 291 291 292 292 293 293 293 293 293 294 295 295 295 295 295 295 295 295 294 294 294 294 294 293 293 293 292 292 292 292 292 292 292 291 291 290 289 289 289 290 290 290 290 290 290 290 290 290 290 290 290 290 291 291 290 290 290 289 289 290 290 289 289 290 290 290 290 289 289 289 289 289 288 287 287 286 286 286 287 288 289 289 289 289
294 293 291 291 292 292 292 293 293 294 294 295 295 295 295 295 295 295 295 294 294 294 294 294 293 293 293 293 292 292 292 292 292 292 292 292 291 290 289 289 289 290 290 290 290 291 291 291 291 290 290 289 289 289 289 289 289 289 288 288 289 289 289 289 289 289 289 289 289 289 289 288 287 286 286 285 284 284 285 286 287 288 289 289 289
293 293 291 290 291 292 292 293 293 294 295 295 295 295 295 295 295 295 294 294 294 294 294 294 294 294 293 293 293 292 292 292 292 292 292 292 292 291 290 289 288 289 289 289 290 290 290 290 290 289 288 288 288 288 287 287 288 288 288 287 288 289 289 289 289 289 289 289 288 288 288 288 286 285 285 285 285 284 284 285 287 288 289 289 289
289 290 290 290 291 292 292 292 293 293 294 294 295 295 294 294 295 295 294 294 294 294 294 294 294 294 293 293 293 293 293 292 292 292 292 292 292 292 291 290 289 288 288 288 288 288 288 288 288 288 288 288 287 287 287 287 287 287 287 287 287 288 288 288 288 289 289 289 288 288 288 287 285 285 286 286 285 285 284 285 287 289 289 289 289
Wind_Speed
21 21 19 18 17 18 17 15 13 12 13 14 16 18 18 18 17 16 15 13 12 13 13 12 12 13 12 13 13 13 14 14 13 11 11 12 13 13 12 12 12 12 11 11 11 11 12 13 12 11 13 16 17 15 15 17 17 16 16 15 16 16 16 14 9 5 8 13 14 15 19 18 15 17 16 14 14 13 14 14 14 14 15 15 15
19 19 19 19 19 19 18 15 13 13 13 14 15 17 17 16 16 15 15 14 12 12 13 12 12 12 12 13 14 13 13 14 12 12 11 12 12 11 11 12 12 11 11 11 11 11 13 14 12 13 16 19 19 16 15 16 16 16 16 16 15 17 18 16 12 7 7 11 14 15 18 18 15 16 18 17 16 15 15 16 15 15 17 17 16
19 19 19 20 20 19 19 17 13 12 13 14 15 16 16 15 14 15 15 13 11 11 12 12 12 12 12 13 14 12 12 12 12 11 12 12 11 11 12 12 13 12 12 12 12 12 14 14 13 15 17 18 18 17 17 16 15 15 15 18 18 17 18 16 13 10 7 9 15 15 16 19 17 16 18 18 17 16 15 16 16 16 18 18 18
20 20 20 20 20 20 20 18 15 12 13 14 15 15 16 15 14 15 15 12 10 11 11 11 12 12 12 13 13 11 11 11 11 11 11 11 11 11 11 12 13 13 12 12 12 12 14 14 14 14 14 14 15 17 18 16 16 15 14 18 20 19 19 18 14 12 9 9 13 14 16 19 19 18 19 18 17 17 16 17 17 18 18 19 18
21 21 21 21 20 20 21 20 18 16 13 14 15 15 16 16 16 15 14 12 11 10 10 11 12 12 12 13 12 12 12 12 12 11 11 11 11 10 10 11 12 12 12 12 12 13 13 14 14 14 13 14 15 16 18 18 16 15 15 16 18 18 22 22 16 13 11 10 12 14 16 17 17 19 21 18 17 18 18 18 19 19 19 20 20
21 21 20 20 20 20 21 22 21 20 16 13 15 16 15 15 15 14 12 12 11 10 10 11 12 13 13 13 12 12 12 12 11 10 10 11 11 9 9 10 10 11 12 11 12 12 13 13 13 13 13 15 16 15 17 19 18 16 16 17 16 17 22 23 18 15 14 11 11 14 17 17 16 17 20 19 16 16 16 18 20 21 21 21 21
21 21 20 20 20 20 21 21 21 21 20 16 13 14 13 12 12 12 12 11 11 10 11 12 13 13 14 15 14 13 12 12 11 10 9 10 10 10 9 9 9 10 11 11 11 11 12 13 13 12 13 14 15 16 16 19 21 19 18 18 16 16 19 21 18 16 14 12 10 11 13 16 15 13 17 19 17 14 14 14 16 19 21 22 22
22 21 21 21 21 22 22 21 21 21 22 19 14 11 12 12 11 12 13 11 9 10 11 13 14 14 14 16 15 12 12 12 11 10 10 9 9 10 10 10 10 10 10 10 10 10 13 16 14 11 13 14 15 17 17 18 20 19 18 19 17 16 17 18 17 14 11 10 11 10 10 12 13 11 12 15 15 15 16 16 14 14 17 20 21
22 22 22 22 23 22 22 22 23 23 23 21 18 14 12 12 11 11 12 10 9 9 9 12 16 15 14 14 13 11 12 13 11 10 10 9 9 9 9 10 9 10 10 10 10 11 13 16 14 11 12 14 17 19 19 18 18 16 17 19 19 17 14 13 15 16 14 11 11 10 9 10 12 13 14 16 17 16 18 21 18 12 10 12 15
24 23 23 23 24 23 23 24 25 25 25 23 20 17 12 10 9 10 10 9 9 9 8 11 15 16 16 16 15 14 14 13 11 10 10 9 9 8 8 8 9 9 9 10 10 11 12 13 13 13 13 14 17 18 17 17 18 17 17 19 19 17 13 11 15 19 18 15 12 11 11 11 13 16 18 20 21 17 16 21 18 11 9 9 10
23 24 24 23 24 24 24 26 26 26 27 27 23 20 15 10 8 9 10 10 11 11 10 11 14 16 17 16 16 17 15 12 10 10 10 10 9 8 7 8 9 8 9 10 10 11 11 11 11 12 13 14 15 16 15 16 18 18 18 18 19 19 16 15 17 19 18 15 13 14 14 12 14 18 18 18 20 19 17 18 15 10 9 9 8
22 24 25 23 23 24 25 26 27 27 28 29 26 22 18 13 10 8 8 9 10 11 11 11 14 15 15 14 15 17 15 12 11 10 10 10 10 10 9 8 9 9 9 9 10 10 10 11 10 10 11 13 13 14 16 16 17 18 18 18 19 20 19 19 19 19 19 16 12 14 16 14 14 18 19 18 19 19 17 16 14 12 10 10 8
21 23 25 24 23 24 24 25 27 27 27 29 29 26 23 18 14 10 7 6 6 7 8 10 12 13 13 13 14 15 14 13 12 11 11 12 11 11 11 11 10 10 10 10 10 10 10 10 10 11 12 13 13 13 15 15 16 17 18 18 18 19 20 21 21 20 22 21 15 14 17 15 13 17 22 22 20 19 17 15 15 13 10 8 5
21 23 25 24 23 23 23 24 25 25 25 27 28 28 26 22 18 14 10 7 5 4 3 5 7 9 10 11 12 13 14 14 13 12 12 13 13 13 14 14 13 11 11 11 11 12 11 11 12 13 13 13 13 13 14 16 16 17 17 16 16 17 17 19 19 19 20 22 20 18 19 18 14 14 18 20 18 15 14 13 13 11 8 5 4
23 23 24 24 22 22 23 23 23 23 22 23 24 24 24 24 21 17 15 14 12 10 8 6 4 4 5 6 9 12 13 14 14 14 15 15 15 15 16 17 16 14 14 14 14 14 14 13 14 15 14 14 15 15 16 17 16 15 14 12 11 11 10 11 15 17 16 17 17 17 17 18 17 14 14 16 16 12 10 10 10 8 8 6 5
25 24 24 24 22 22 22 22 22 23 22 21 21 20 21 23 22 19 17 16 15 13 11 10 8 5 3 2 4 8 12 13 14 15 16 16 16 17 18 18 18 17 17 17 17 16 15 15 15 16 17 17 17 16 16 16 16 15 13 12 10 8 6 4 5 9 10 12 13 13 11 12 12 11 11 12 12 10 8 8 8 8 8 7 6
25 24 23 23 22 21 21 21 21 22 22 22 21 20 19 19 20 20 18 17 17 16 14 13 12 10 7 4 2 3 7 10 12 14 15 17 18 18 18 17 17 18 18 18 18 18 17 17 16 17 18 18 17 16 16 16 17 18 19 20 20 20 19 17 13 11 12 13 13 12 12 13 13 13 12 11 11 11 9 8 8 7 5 4 4
25 24 23 22 20 19 19 20 20 21 22 22 21 20 18 17 17 19 20 20 19 18 16 14 13 13 12 10 7 3 2 5 9 13 14 17 19 18 18 18 18 17 17 17 18 19 19 18 18 18 19 18 18 18 17 17 20 23 24 25 25 25 25 24 22 20 19 18 17 16 15 15 14 13 12 10 9 9 7 5 6 5 3 2 2
24 25 24 23 21 18 18 19 20 21 21 21 20 19 19 17 16 17 20 23 23 21 19 18 17 16 15 14 12 9 6 1 6 11 14 16 18 19 19 20 19 18 17 17 17 17 17 17 19 20 20 20 20 20 19 19 21 22 22 23 25 25 25 24 24 23 21 19 16 13 13 13 12 10 10 9 7 6 5 5 5 6 5 4 3
24 25 25 25 23 20 18 19 20 20 20 20 19 19 17 17 17 17 18 21 24 25 25 25 25 23 19 17 15 13 12 7 1 8 12 14 17 19 20 22 21 20 18 16 15 14 14 15 17 19 21 22 23 23 23 21 20 20 21 22 25 25 25 24 21 20 19 18 17 15 15 14 13 12 11 10 10 9 8 7 7 6 5 3 2
25 25 25 25 25 23 22 22 22 23 23 22 22 21 19 18 17 17 17 19 21 25 27 28 29 29 27 25 21 18 16 12 6 6 8 11 14 17 19 21 22 22 20 18 16 16 14 15 16 19 22 25 24 24 23 21 20 21 21 22 23 25 25 23 20 19 19 20 20 19 18 16 15 13 12 10 9 9 8 6 6 5 4 3 1
25 26 25 24 24 24 23 23 23 24 23 22 22 22 22 22 21 19 19 21 21 22 25 27 28 29 29 29 27 24 21 16 12 12 10 6 8 11 15 19 22 23 23 22 21 20 18 16 15 16 19 21 20 19 19 19 20 20 20 20 22 24 24 24 23 21 20 20 19 18 17 15 14 13 11 10 8 7 6 5 5 5 5 4 3
24 25 25 25 24 22 22 22 23 23 20 18 17 18 19 22 23 21 20 20 20 21 23 24 26 27 27 27 26 26 23 19 17 20 19 13 8 8 11 15 19 22 24 26 26 25 24 22 19 16 17 17 16 15 16 17 18 19 20 21 22 22 22 23 22 21 20 18 17 17 15 14 13 12 11 10 9 8 7 7 6 6 5 5 5
22 23 24 25 24 23 22 21 22 22 21 19 18 17 17 17 19 20 20 19 19 19 20 21 23 24 24 24 22 21 20 20 21 24 23 19 16 14 13 15 19 23 26 28 28 28 28 27 24 21 21 21 21 21 21 21 22 23 23 22 21 20 20 20 19 19 18 17 16 15 14 12 12 12 11 11 10 10 9 8 8 8 7 7 7
21 22 22 23 23 23 22 21 20 20 21 20 18 16 17 17 17 18 19 19 17 16 17 19 20 20 20 21 20 20 20 21 23 25 24 22 20 18 18 18 20 24 27 29 29 29 29 28 27 26 26 26 26 27 27 25 24 23 22 20 19 17 17 17 16 16 17 17 16 15 15 14 14 13 13 12 12 11 11 10 9 9 9 9 9
21 21 20 20 21 22 22 22 21 20 19 20 18 15 15 15 16 16 17 17 16 15 15 17 18 18 18 19 19 21 21 21 23 24 24 24 22 21 21 22 23 26 28 29 28 28 28 27 27 27 27 27 27 28 27 25 22 20 18 17 15 14 12 12 13 14 16 18 18 16 16 16 15 14 14 14 13 12 12 12 11 11 11 10 9
21 20 19 19 19 20 20 21 21 20 20 20 20 18 15 13 14 16 16 15 15 14 14 15 16 18 17 16 17 20 21 20 21 21 22 24 24 24 24 25 26 28 30 29 28 27 27 27 27 27 27 26 26 26 25 22 20 18 15 13 12 11 10 9 11 14 17 18 18 18 17 16 16 15 15 15 15 14 13 13 13 12 12 11 9
21 20 19 19 18 18 18 18 18 19 19 19 20 19 17 13 12 14 16 14 13 13 12 12 14 16 16 15 15 18 20 20 19 18 19 21 22 22 23 24 25 27 28 27 27 27 26 26 25 25 24 24 23 23 21 19 18 16 14 13 11 10 10 11 13 16 18 18 19 19 18 16 16 16 16 15 15 15 14 14 14 13 12 10 8
20 19 18 18 19 18 17 16 16 15 15 16 17 18 18 15 13 14 16 16 15 13 12 11 11 12 14 15 15 15 16 18 18 16 16 18 20 21 22 22 23 23 23 22 22 21 20 20 19 18 18 18 18 19 18 17 16 16 15 15 15 15 15 15 16 17 18 18 19 18 17 16 16 15 14 13 11 12 14 15 15 14 12 10 9
17 17 17 18 19 19 17 14 13 13 13 13 12 13 14 15 15 15 15 16 16 15 15 13 11 9 10 12 13 13 13 14 14 15 16 17 18 19 19 19 19 18 16 16 16 16 16 16 15 14 14 14 14 14 14 14 15 15 16 18 18 18 18 18 18 18 18 18 18 17 17 15 13 12 11 10 8 9 12 14 14 12 11 9 9
15 16 16 16 17 19 18 16 13 11 11 11 10 10 10 11 13 14 13 13 14 16 16 16 14 10 7 7 8 10 11 11 11 12 13 13 13 14 14 14 14 13 12 12 14 15 15 15 15 14 14 14 14 14 14 14 15 16 17 18 18 18 19 19 18 18 18 18 18 17 17 16 14 12 10 9 7 7 8 9 10 10 10 9 9
15 15 15 15 15 17 19 18 15 12 10 10 9 9 8 8 9 12 13 14 15 16 16 17 17 15 11 7 4 3 5 6 7 8 8 8 8 9 9 9 9 9 9 10 13 14 14 15 16 15 15 15 15 15 15 15 16 17 19 19 18 18 18 18 18 18 19 19 19 18 17 16 15 13 11 10 9 8 7 8 9 9 9 9 9
15 16 16 14 14 15 18 19 18 14 11 9 8 7 8 8 8 10 11 13 15 17 18 18 18 19 18 14 9 4 2 2 1 2 3 3 3 3 3 4 5 6 6 9 11 12 12 13 14 14 14 14 14 15 16 17 18 18 19 19 19 19 19 19 18 19 20 20 20 19 17 16 15 14 13 14 13 12 10 9 9 9 8 8 8
14 15 15 14 13 14 15 17 18 16 13 10 8 7 7 8 8 9 10 11 13 15 17 18 19 20 20 20 18 13 8 5 4 3 2 2 3 3 3 2 2 4 6 8 9 10 11 12 13 13 13 13 14 16 17 18 18 19 20 20 20 20 20 20 20 20 21 21 21 20 19 18 17 14 13 13 13 12 11 10 9 9 8 7 7
13 14 14 14 14 13 14 15 16 16 14 11 9 8 7 7 8 8 9 10 10 10 12 15 17 19 19 20 21 20 16 11 7 5 3 1 2 3 4 5 4 5 8 9 10 10 11 12 12 12 13 14 16 17 18 19 19 20 21 21 21 21 21 20 20 21 21 21 20 20 19 18 18 16 14 13 12 11 10 10 9 9 8 7 7
14 14 14 14 14 14 13 12 13 14 14 12 11 10 9 8 7 7 7 9 10 9 9 10 13 15 17 18 19 19 18 15 11 8 5 2 1 2 4 6 8 9 10 11 11 11 11 12 12 13 14 16 18 19 19 20 20 21 21 21 21 21 20 20 19 19 19 19 18 18 17 17 16 16 14 14 13 13 12 11 11 11 11 9 6
13 14 14 15 15 15 13 11 10 11 13 13 12 11 9 8 8 8 7 9 11 11 9 10 11 12 13 15 16 17 17 16 13 11 8 5 2 1 4 8 11 13 13 13 12 12 12 12 12 13 15 17 18 19 20 20 20 20 20 20 20 19 18 18 17 17 17 16 16 15 15 15 16 15 14 12 12 12 12 12 10 10 10 10 7
13 14 15 14 14 15 15 13 10 9 11 11 11 11 10 10 10 9 8 9 12 12 11 11 11 10 10 12 15 16 15 14 13 13 12 9 5 1 4 8 11 13 14 14 14 14 13 12 12 14 16 18 19 20 20 19 19 18 18 17 17 16 16 16 15 15 15 15 15 15 15 14 14 15 15 14 13 13 13 12 10 8 8 8 7
14 15 15 14 13 13 15 14 10 7 8 10 10 12 12 11 11 10 8 8 10 11 10 10 10 10 10 12 15 15 13 11 11 11 11 10 7 4 5 8 10 11 13 14 14 13 12 11 12 15 18 19 19 19 18 17 16 16 15 15 15 14 14 14 13 14 14 14 14 14 14 14 13 14 14 13 12 12 12 12 11 10 8 8 8
15 14 14 15 14 13 14 14 10 6 6 8 10 11 11 12 11 10 9 9 9 9 8 9 11 12 12 13 16 15 12 10 9 9 9 8 6 6 7 7 8 9 12 14 14 13 12 12 14 15 17 18 17 15 15 14 13 14 13 13 13 13 12 12 12 12 12 12 13 13 13 13 12 12 11 10 11 11 10 9 9 9 9 9 9
13 13 14 16 15 13 12 11 8 4 4 7 9 9 10 12 12 11 9 8 8 8 8 9 11 12 13 14 15 14 11 10 9 8 7 7 6 7 8 8 8 8 9 12 14 14 13 14 14 14 14 14 13 12 13 13 12 12 12 12 12 11 10 10 11 10 10 11 11 10 10 10 9 9 9 9 9 9 9 8 8 9 9 9 9
11 12 14 16 16 15 12 9 6 4 4 7 9 9 10 12 12 11 10 9 8 7 7 8 9 11 13 14 14 13 12 11 10 9 7 7 6 6 7 8 8 6 4 8 13 14 12 12 13 12 12 12 11 10 11 11 11 10 10 9 9 9 8 9 9 9 9 9 9 8 8 8 8 8 8 8 8 8 8 8 8 9 9 9 9
11 12 13 14 15 16 14 11 8 6 6 7 9 10 10 10 10 10 10 9 8 8 7 8 9 11 11 12 13 13 12 11 11 11 9 8 7 7 6 6 5 3 2 7 11 12 10 10 11 11 10 10 10 9 9 9 8 7 7 7 7 7 7 7 7 7 7 7 7 6 7 6 6 6 7 7 7 7 8 8 8 9 9 9 8
11 11 12 12 13 14 14 12 10 9 8 8 9 9 9 9 8 8 8 8 9 8 7 7 9 11 11 10 12 13 12 10 10 10 10 8 7 7 7 6 6 6 8 10 11 10 8 8 9 9 9 9 9 8 7 7 6 5 5 5 6 6 6 5 5 6 6 5 5 5 5 5 5 5 6 6 7 7 8 8 8 8 9 9 8
11 12 12 11 11 13 14 14 12 10 9 9 9 9 8 7 7 7 7 8 8 8 6 6 8 10 10 9 9 11 11 10 8 9 9 8 7 6 6 6 7 10 11 12 11 10 8 8 8 8 8 8 7 7 6 5 4 4 4 5 5 5 5 5 6 6 5 5 4 4 4 4 4 4 5 5 6 6 7 8 7 7 7 8 8
11 11 11 11 11 12 14 15 14 12 10 10 9 8 7 6 6 7 7 7 7 7 6 5 7 9 9 8 7 8 9 9 8 7 7 7 6 6 5 4 5 7 8 8 8 8 7 6 6 5 4 5 5 5 4 4 2 2 3 6 6 5 4 5 5 4 4 4 4 3 3 3 4 4 5 5 5 5 6 6 6 5 5 6 7
10 11 11 11 12 13 14 16 16 13 11 10 9 8 6 6 7 8 7 7 7 8 6 5 6 7 8 7 5 5 7 7 7 7 7 6 5 5 4 4 4 4 4 4 5 5 4 4 4 3 3 3 3 3 3 2 1 1 3 6 7 5 5 5 4 3 3 3 3 2 2 2 2 4 5 5 5 5 4 4 4 3 3 4 6
10 11 11 11 12 12 14 16 15 13 10 10 10 8 7 6 7 8 7 7 8 8 8 6 5 5 6 5 4 3 4 5 5 6 6 5 4 3 3 3 3 4 4 4 5 4 3 2 2 2 2 2 2 2 2 2 2 1 3 6 7 6 5 5 4 3 3 3 2 2 2 3 3 4 6 6 6 5 4 2 2 2 2 3 5
11 11 11 11 11 12 13 14 13 11 9 9 9 9 7 5 5 6 8 8 8 8 9 8 6 4 4 4 3 1 2 4 4 5 5 4 3 2 2 1 1 2 3 4 4 5 4 3 2 2 2 2 3 4 4 4 3 4 5 7 7 7 6 5 5 4 3 3 3 3 3 4 5 6 7 7 6 4 2 1 0 1 1 2 3
10 10 10 11 10 11 12 12 12 10 9 8 9 9 8 5 4 5 7 8 7 7 8 8 7 5 4 4 5 4 4 4 4 5 5 5 4 3 2 1 1 2 3 4 5 5 5 4 3 3 3 3 4 4 5 5 5 6 7 8 8 8 7 5 4 3 3 3 3 3 4 5 7 6 6 6 4 2 0 1 2 2 2 2 3
8 8 8 9 9 10 12 13 13 12 11 10 9 10 9 7 4 5 6 7 7 7 7 8 8 7 6 5 6 6 6 7 8 7 7 7 6 5 3 3 3 3 3 3 3 4 4 3 3 3 3 4 3 3 5 6 6 7 8 8 8 8 7 5 4 3 2 3 4 3 4 6 7 6 5 4 3 1 1 2 3 3 2 2 3
Wind_Direction
358 355 351 346 343 340 333 317 297 287 278 267 260 255 252 250 248 251 249 237 228 223 215 206 201 196 195 201 205 206 214 223 223 220 217 214 217 223 222 217 217 219 216 213 211 211 217 222 221 221 223 223 222 222 222 222 217 213 215 214 214 214 213 217 221 191 183 193 192 200 210 212 214 216 217 219 220 216 216 219 218 213 211 211 210
347 346 343 341 341 344 341 329 307 288 278 272 265 258 254 251 250 251 247 237 230 225 216 208 200 193 195 204 207 205 214 227 223 211 210 212 213 219 221 217 215 214 213 213 211 211 219 221 216 219 224 222 219 218 217 217 213 212 214 213 213 216 214 214 217 203 182 190 195 202 211 212 212 215 217 219 221 221 221 222 221 218 216 214 214
344 343 341 340 341 344 345 340 327 302 283 275 271 264 258 254 249 246 243 239 233 225 218 211 201 193 197 208 209 202 206 222 227 216 208 209 214 219 219 217 216 215 214 214 212 212 217 216 212 219 223 218 215 216 217 214 210 209 210 211 215 219 215 212 213 209 188 184 194 201 209 212 212 215 218 219 220 222 226 228 228 226 224 221 219
348 346 344 343 344 346 348 348 343 325 300 284 276 271 265 258 254 251 249 244 236 228 221 216 208 198 199 207 207 199 198 203 211 213 209 209 213 216 217 215 216 218 218 218 215 212 214 213 210 213 215 210 209 213 214 212 210 209 208 210 213 216 216 214 214 210 197 187 192 196 207 212 212 216 219 220 221 222 224 229 231 231 232 230 227
350 350 348 347 347 350 353 354 352 345 324 295 279 277 275 268 262 259 256 249 242 235 227 221 215 206 203 204 201 199 199 197 199 204 207 208 209 212 216 216 217 220 221 219 215 211 213 213 209 207 207 208 208 210 213 214 211 209 211 211 210 214 220 220 216 208 205 199 192 195 205 209 209 216 220 219 219 222 224 227 230 232 234 235 234
354 354 353 351 349 351 356 358 357 356 347 319 289 281 282 278 272 267 259 252 247 241 233 227 220 213 208 203 198 197 200 200 201 202 203 207 210 211 216 219 221 223 223 219 215 214 214 214 213 209 208 211 211 209 210 213 213 211 212 213 209 212 220 221 215 210 213 210 195 195 204 205 205 214 220 217 212 214 218 224 230 232 234 237 238
358 358 356 354 352 351 354 357 357 358 360 349 313 285 278 282 283 275 263 255 251 246 240 232 226 221 214 206 198 193 194 197 200 201 201 207 212 212 216 222 225 225 225 221 217 216 216 217 218 215 214 214 212 208 207 210 215 215 213 214 212 210 216 218 212 208 211 210 203 197 200 204 202 207 217 218 214 213 213 216 226 231 234 238 239
1 1 359 358 356 353 352 354 356 359 5 5 351 317 295 296 301 287 273 266 260 255 247 237 233 229 220 211 202 194 192 194 196 200 202 205 209 213 219 224 226 227 225 224 222 220 222 225 223 218 219 216 210 211 210 211 215 216 214 215 215 212 215 213 206 207 213 211 208 199 191 199 200 199 208 210 208 215 218 216 221 226 230 237 241
5 4 4 2 359 356 355 356 358 1 7 10 9 357 327 310 307 294 282 279 273 264 253 244 239 231 220 213 205 198 199 201 201 203 204 207 209 212 218 223 225 226 225 224 222 218 222 227 226 222 222 219 216 218 218 214 216 218 217 218 216 215 214 202 200 216 228 223 213 201 192 198 198 195 203 209 210 214 219 222 224 223 221 232 242
9 7 6 4 1 359 360 1 1 2 7 11 12 10 353 325 308 297 291 295 290 277 262 252 244 231 220 217 213 209 208 209 209 208 207 210 210 206 211 217 218 221 222 220 220 216 215 222 226 227 229 226 222 224 225 223 223 224 226 226 223 218 207 189 198 214 220 218 211 202 201 204 204 205 211 218 218 213 216 222 222 218 221 229 238
12 10 7 4 3 4 4 4 5 4 7 11 14 14 10 356 335 319 313 310 302 290 278 262 246 231 224 223 221 218 215 212 210 208 208 212 214 208 209 216 216 217 216 215 215 214 210 210 215 221 225 225 225 227 229 229 228 228 231 233 232 228 217 204 206 213 217 217 210 207 210 212 213 215 216 218 219 216 214 219 217 209 218 226 227
13 13 10 5 5 7 6 6 8 8 9 11 14 16 18 18 10 350 331 320 307 296 284 266 249 236 227 223 223 221 219 216 211 209 210 214 219 219 214 212 213 214 212 210 209 208 205 203 203 206 212 217 223 226 227 227 227 228 230 231 232 233 229 220 215 216 222 224 213 208 216 219 221 223 220 215 216 216 213 215 216 209 212 224 224
14 16 13 8 7 8 8 9 10 10 11 14 17 18 19 21 21 17 2 335 315 296 278 261 251 243 230 221 222 223 222 218 213 212 214 217 225 229 223 215 211 209 208 206 203 201 198 197 198 202 206 208 213 219 221 220 221 223 227 229 230 231 231 227 222 219 222 228 228 224 224 224 224 229 228 221 215 211 209 211 214 212 211 221 211
17 18 15 12 10 9 9 11 12 11 12 16 20 21 22 22 23 24 23 14 6 357 322 277 258 250 238 227 224 224 223 221 218 218 221 224 229 234 233 228 219 209 206 205 204 205 203 198 197 199 199 200 204 209 211 212 212 213 216 220 222 228 231 231 230 226 223 226 230 231 232 231 230 232 231 224 215 209 207 206 208 205 198 192 171
20 20 18 15 14 12 11 13 13 13 13 14 18 22 24 26 26 24 25 28 31 32 28 13 338 294 265 244 234 231 230 227 223 224 226 229 231 232 234 233 225 216 215 215 214 215 212 206 203 201 201 202 204 205 205 202 195 191 191 191 198 215 228 234 237 236 230 230 231 230 229 228 227 225 218 210 206 207 208 204 199 187 168 158 144
21 21 20 17 16 15 15 15 15 16 15 17 19 20 23 29 31 29 28 31 33 34 33 30 22 12 346 283 252 244 240 234 228 227 227 226 226 228 230 228 222 218 217 215 214 212 209 205 205 206 205 204 202 202 201 192 178 168 159 145 138 138 126 134 215 223 214 214 217 212 201 195 193 185 176 176 179 180 177 167 152 145 146 145 134
22 22 21 19 18 19 19 19 19 19 19 21 22 21 22 27 32 35 36 36 38 38 38 38 37 39 43 39 5 280 255 237 225 223 222 219 219 221 218 213 210 210 208 205 203 202 200 200 202 202 202 199 193 191 192 182 165 153 143 131 124 117 111 109 114 122 132 139 142 138 134 136 137 134 133 138 142 138 134 128 128 139 151 148 141
22 23 24 23 21 22 23 24 25 24 25 25 25 25 26 27 32 41 46 48 48 46 45 44 42 42 44 44 45 38 307 238 213 207 208 209 211 211 206 199 196 196 194 192 191 193 195 195 195 196 197 193 185 181 183 174 158 149 142 133 125 119 118 119 118 117 118 117 113 112 114 119 120 119 121 129 138 140 139 136 132 135 141 141 152
23 25 27 29 28 26 27 30 31 31 30 29 28 28 30 32 36 44 52 57 58 56 53 52 49 44 40 40 45 51 43 2 204 195 195 198 199 200 196 189 184 181 178 178 178 181 186 187 188 192 190 182 176 173 174 171 163 157 151 143 132 126 126 128 126 125 126 124 122 124 124 122 119 117 117 120 125 130 140 146 129 114 121 141 163
27 28 30 34 37 37 36 36 37 37 36 35 35 33 31 34 39 43 50 57 60 59 57 57 55 52 48 45 44 45 42 35 140 184 187 189 189 191 188 181 174 167 162 161 159 159 165 170 175 181 178 171 170 169 168 171 170 166 161 154 144 139 138 136 135 135 133 128 124 122 118 115 113 111 108 104 102 104 116 133 129 111 107 122 146
31 31 32 35 40 44 47 47 47 47 46 45 45 44 40 37 38 41 46 52 56 56 55 55 54 53 54 54 52 49 45 41 62 133 162 176 179 180 179 173 168 159 149 143 139 138 143 149 155 165 168 167 168 170 171 174 174 168 164 160 153 148 145 139 136 134 129 122 118 114 109 106 105 104 101 98 98 99 103 114 122 120 122 126 152
33 32 32 34 37 41 44 44 44 45 45 43 44 47 49 48 46 44 46 49 52 52 52 52 51 50 52 54 55 55 52 49 64 89 100 125 162 167 161 156 158 156 146 133 125 122 123 126 133 150 161 163 165 167 168 170 168 161 157 153 149 146 143 137 134 130 123 119 115 111 107 105 103 101 98 95 94 96 98 103 111 121 131 136 148
35 33 33 33 33 34 34 33 35 38 38 36 37 40 45 50 50 47 44 45 46 47 48 49 49 48 47 49 52 56 56 53 61 75 82 88 103 126 133 135 142 145 137 125 118 115 113 114 118 131 142 144 144 144 145 147 145 138 136 136 137 137 137 135 133 129 124 121 117 110 105 104 102 99 99 98 96 97 98 98 98 102 110 122 134
35 33 32 32 31 31 30 30 32 37 40 40 39 38 39 43 47 46 44 44 44 43 43 46 48 47 44 43 45 50 53 55 61 68 74 80 88 97 108 116 121 122 117 112 110 110 110 111 115 120 123 123 122 122 121 122 122 123 124 127 129 131 132 131 131 129 124 120 114 108 104 103 100 98 100 102 101 99 95 94 99 105 109 111 112
36 33 30 30 29 29 29 29 30 35 39 41 39 36 37 39 41 43 44 44 44 42 41 44 47 47 44 41 41 46 52 58 64 70 74 78 84 93 102 108 112 112 108 106 107 109 110 112 114 115 116 117 117 115 113 114 116 118 120 122 123 125 126 127 129 129 124 118 113 108 106 105 103 104 106 107 107 103 100 101 104 107 108 106 101
31 31 29 28 27 26 26 27 28 30 35 39 40 36 34 36 38 39 41 41 42 43 42 42 44 45 45 42 42 49 58 63 68 74 80 84 90 95 100 104 108 109 108 107 109 110 112 114 114 114 114 115 115 114 113 114 116 116 115 115 113 113 116 121 125 126 123 120 116 112 109 109 109 109 109 108 106 104 105 109 112 114 114 110 101
21 22 24 25 24 23 23 22 24 26 29 35 39 38 34 32 33 36 37 36 36 39 41 40 39 41 43 44 46 52 59 66 72 78 84 89 94 99 102 103 104 104 105 105 105 105 107 108 108 108 108 110 111 113 114 115 115 112 107 100 94 94 102 115 123 123 121 120 118 115 114 113 112 110 108 105 102 100 101 105 109 115 116 111 101
18 17 18 20 21 21 22 21 21 23 26 31 35 37 37 34 32 34 35 34 33 33 36 39 41 41 43 47 52 54 56 60 68 77 88 95 99 101 103 103 102 100 100 101 101 100 99 97 96 95 95 95 96 97 99 100 101 102 102 99 96 98 106 115 121 122 121 120 119 117 115 112 109 107 105 102 99 98 97 97 99 102 103 99 91
18 16 16 20 21 20 20 20 19 20 24 29 34 37 38 40 42 41 37 34 33 32 33 36 39 42 45 49 54 57 57 58 60 69 85 98 103 102 102 102 101 99 99 101 100 97 91 88 85 83 80 77 76 77 80 83 89 95 102 110 115 118 121 122 123 123 122 122 120 117 114 110 106 102 99 94 92 93 95 95 93 91 88 84 78
16 15 15 18 20 20 19 18 17 18 21 27 32 36 36 38 43 45 41 35 33 33 34 33 31 34 43 51 56 61 63 64 66 71 79 88 93 94 94 93 92 92 94 96 96 94 91 90 90 90 88 84 82 83 85 90 97 103 109 115 119 123 126 126 125 123 122 119 117 115 112 108 104 100 96 91 86 88 92 93 88 81 75 71 69
13 14 15 17 19 20 20 18 16 16 17 21 26 31 32 33 37 42 42 39 36 34 34 32 28 26 32 43 53 62 67 70 71 75 80 82 84 85 86 85 84 85 91 97 98 99 101 103 104 105 106 105 106 108 110 112 115 117 118 118 120 122 123 122 120 119 116 113 111 109 108 105 102 99 97 95 91 88 87 83 77 72 68 65 62
13 15 17 18 20 21 21 21 20 18 15 15 18 21 22 23 28 33 35 34 34 33 33 32 29 26 25 22 16 38 62 70 74 79 83 86 86 84 83 82 82 84 93 105 109 109 110 112 113 114 115 115 119 122 124 126 128 127 125 121 120 120 118 115 115 114 111 109 108 105 103 100 99 96 94 92 89 84 77 72 67 66 65 62 60
15 18 20 19 19 21 22 22 23 22 18 14 11 11 13 13 13 16 20 22 25 26 27 29 28 26 27 28 22 1 327 318 10 81 100 105 107 102 91 87 91 97 106 114 118 120 120 118 119 120 119 121 127 131 132 132 131 129 126 121 117 114 112 111 111 109 106 105 104 102 100 98 95 91 89 87 84 78 72 67 61 59 59 57 57
16 18 20 18 17 20 21 21 23 25 22 16 9 4 6 9 8 7 7 10 14 17 21 24 26 26 27 29 29 24 12 347 323 303 260 215 211 219 214 179 147 145 144 134 127 128 128 125 123 124 125 129 134 136 135 134 130 126 121 117 114 112 110 109 107 104 102 102 100 99 98 96 93 89 85 82 79 75 70 66 62 59 57 54 52
15 15 16 15 14 17 19 19 22 24 22 18 12 4 359 360 2 5 8 7 7 10 16 21 24 25 26 29 30 27 22 14 5 356 342 266 217 221 212 191 167 159 158 147 135 131 132 129 128 129 131 133 136 137 135 132 128 123 118 114 112 110 107 105 104 101 100 99 98 97 96 93 90 87 85 83 82 79 73 69 65 59 53 49 46
14 12 12 9 5 5 9 12 18 23 24 22 17 8 359 354 355 359 7 11 13 13 15 19 22 22 25 29 30 25 19 15 13 13 13 37 121 162 186 177 158 147 144 138 130 129 130 128 128 132 134 135 135 135 132 128 124 121 118 115 112 110 107 104 103 101 99 98 97 95 93 91 88 86 84 83 82 80 75 70 65 59 53 49 46
11 9 9 7 1 357 356 357 5 18 25 28 24 13 1 355 353 353 359 12 18 18 16 19 21 19 18 22 23 20 14 9 6 6 8 6 354 233 190 170 153 142 137 134 130 130 128 126 128 133 135 136 134 132 129 126 123 120 118 115 112 109 108 106 104 103 101 99 99 98 94 91 89 86 84 81 77 73 70 65 59 55 51 49 46
8 5 4 1 357 353 350 349 354 11 23 29 27 20 12 5 359 355 358 10 17 19 21 25 24 17 13 15 15 11 6 0 358 2 7 6 0 323 170 158 148 141 138 136 134 130 126 125 130 135 136 136 133 131 127 125 123 120 118 115 112 109 108 107 106 106 104 101 100 99 94 91 88 85 83 80 74 68 65 61 55 51 48 47 42
1 355 353 352 352 349 345 344 350 7 21 26 24 20 20 19 11 5 5 10 14 18 25 29 21 10 9 12 9 2 356 354 360 7 12 16 26 70 124 136 138 138 136 136 134 128 122 122 128 134 135 133 131 129 127 125 124 123 120 117 114 111 109 109 109 108 106 101 97 93 90 88 88 85 82 78 73 67 64 61 55 50 46 44 40
2 359 356 355 353 346 338 341 349 2 19 25 20 17 22 26 20 14 12 13 12 14 22 25 16 9 9 10 5 359 358 4 11 14 16 23 45 82 101 111 123 133 139 140 135 126 121 123 126 128 130 129 127 127 127 126 127 127 125 121 117 113 110 110 110 109 106 100 94 89 85 82 82 81 79 75 71 66 63 60 55 48 43 40 35
9 12 8 1 359 350 339 343 356 11 20 19 14 15 26 29 25 19 15 8 4 7 16 22 17 10 6 6 8 13 22 26 22 20 22 30 50 79 93 98 104 114 133 143 139 129 125 128 128 127 127 127 124 124 125 125 126 128 127 125 121 115 110 108 108 107 105 100 93 87 82 78 76 77 75 69 63 59 55 52 49 43 39 35 31
5 5 2 3 10 12 5 4 13 18 14 10 5 8 23 28 24 22 18 7 358 0 10 15 14 10 6 8 17 28 34 30 26 30 34 33 41 68 89 96 91 84 110 144 139 131 130 135 132 127 127 127 123 122 123 122 121 123 124 122 120 117 114 111 109 105 102 97 89 82 79 75 72 71 68 63 57 51 49 48 45 39 36 33 29
360 358 356 1 13 19 20 22 22 11 4 2 356 358 12 20 19 21 22 12 360 358 2 3 4 4 4 11 24 33 32 28 31 38 43 45 50 60 71 74 68 63 138 146 133 125 132 146 144 137 133 131 128 128 128 125 123 126 127 123 119 117 115 113 109 103 96 90 83 78 76 75 73 72 69 63 57 53 48 45 41 35 32 31 29
356 357 358 359 4 9 12 14 11 3 358 352 344 344 356 8 12 15 20 11 357 354 357 359 1 2 1 8 22 30 29 27 32 37 42 49 54 56 59 63 74 99 122 127 121 117 125 137 141 144 146 142 135 131 129 127 127 130 133 130 123 115 110 109 110 108 101 93 86 83 83 80 77 76 70 60 54 49 45 41 37 33 29 29 31
354 352 353 353 354 357 358 354 350 345 343 342 336 331 337 351 360 4 10 9 357 349 350 357 2 4 2 2 14 25 26 23 25 32 38 45 50 55 67 80 88 97 106 112 114 115 115 116 120 129 137 138 137 136 135 130 123 125 142 149 142 129 122 121 118 113 105 94 85 83 83 79 72 66 60 52 44 40 37 35 32 31 29 27 28
354 350 348 344 343 345 347 343 337 329 325 330 331 323 320 333 345 349 356 2 356 345 342 348 357 1 1 358 5 21 26 23 21 26 34 42 49 57 74 97 103 99 102 110 115 117 118 118 122 129 132 134 136 139 141 135 110 99 152 162 158 148 139 132 121 111 105 100 95 88 79 72 61 47 39 34 29 26 24 23 25 30 32 31 30
353 349 344 340 337 338 340 340 337 327 318 323 331 323 309 313 330 336 340 345 344 341 338 338 346 355 356 351 354 15 26 24 23 26 32 40 50 58 72 102 123 121 117 124 131 136 135 129 129 136 143 148 152 160 165 169 154 94 149 162 162 155 148 142 133 121 111 105 101 88 63 49 38 26 19 11 3 0 1 6 21 32 39 41 39
342 342 340 338 337 337 337 339 338 331 319 319 328 329 315 306 318 328 329 329 332 335 335 335 339 346 344 340 351 25 33 24 18 17 21 28 37 48 60 91 128 142 147 151 159 169 171 153 136 135 138 156 181 197 205 214 223 187 159 163 163 158 154 152 144 128 105 86 74 62 53 41 22 7 357 346 337 334 332 333 11 40 57 59 50
329 334 337 336 336 338 341 342 339 334 325 322 330 337 330 310 307 323 327 322 320 325 330 330 330 331 326 319 315 347 18 14 8 360 354 356 6 14 21 53 160 174 182 196 213 225 230 235 239 237 240 248 247 242 242 240 223 191 175 174 171 166 160 154 142 123 98 71 55 53 49 28 7 355 349 343 336 332 318 287 199 99 99 79 58
329 332 335 335 336 344 352 354 349 340 329 323 332 342 341 322 299 311 322 318 312 316 325 326 323 319 313 299 288 291 306 320 326 327 325 322 318 313 299 267 233 212 204 211 226 236 239 241 239 235 249 269 266 250 236 223 202 186 182 182 179 175 170 165 153 129 90 50 36 41 35 16 2 353 348 345 345 349 355 174 170 160 141 99 68
347 343 343 342 345 352 358 359 356 351 343 334 334 340 342 335 310 298 309 317 317 319 324 325 323 322 314 290 278 284 296 302 307 318 330 328 314 292 267 248 236 228 217 205 203 210 216 220 224 236 267 289 277 230 207 196 187 182 182 182 182 183 183 180 167 140 85 37 31 39 30 12 3 357 349 345 343 326 174 158 157 158 148 112 81